GEC74 LFML-EDDH

Flight info

Callsign GEC74
Flight time N/A
Altitude 40000
Route MTL A6 DANBO/N0437F180 A6 DJL/N0490F340 T37 KASON G21 GTQ Q252 ERADI/N0489F410 DCT TOLEY DCT ABSIX DCT AMASI DCT MONAX DCT ERNEP DCT ESADU/N0471F230 P12 NORTA/N0488F430 P605 NOLGO NOLGO6A
Aircraft B742/H-SDFHIRWXY/L

Departure

Time 2026-05-05 18:59
Airport Marseille Provence Airport (LFML)

Arrival

Time N/A
Airport Hamburg Helmut Schmidt Airport (EDDH)
Time Latitude Longitude Altitude Speed Heading
2026-05-05 18:13 43.43814 5.22303 41 ft 0 kts 74°
2026-05-05 18:37 43.43814 5.22302 42 ft 0 kts 74°
2026-05-05 18:46 43.43811 5.22292 41 ft 2 kts 74°
2026-05-05 18:46 43.43809 5.22272 40 ft 2 kts 93°
2026-05-05 18:46 43.43812 5.22251 40 ft 2 kts 109°
2026-05-05 18:47 43.43818 5.22233 39 ft 2 kts 126°
2026-05-05 18:47 43.43829 5.22218 38 ft 2 kts 142°
2026-05-05 18:47 43.43842 5.22207 37 ft 2 kts 158°
2026-05-05 18:47 43.43848 5.22204 37 ft 1 kts 165°
2026-05-05 18:48 43.43851 5.22203 37 ft 0 kts 164°
2026-05-05 18:52 43.43842 5.22206 37 ft 3 kts 164°
2026-05-05 18:52 43.43798 5.22223 39 ft 9 kts 164°
2026-05-05 18:52 43.43741 5.22208 39 ft 9 kts 225°
2026-05-05 18:53 43.43695 5.22145 38 ft 9 kts 224°
2026-05-05 18:53 43.43682 5.22082 37 ft 9 kts 318°
2026-05-05 18:53 43.43744 5.22022 35 ft 12 kts 325°
2026-05-05 18:53 43.43815 5.21934 32 ft 15 kts 313°
2026-05-05 18:54 43.43899 5.21811 28 ft 19 kts 313°
2026-05-05 18:54 43.43983 5.21667 23 ft 15 kts 272°
2026-05-05 18:54 43.43920 5.21558 24 ft 12 kts 227°
2026-05-05 18:54 43.43928 5.21469 24 ft 9 kts 315°
2026-05-05 18:55 43.43980 5.21399 23 ft 11 kts 315°
2026-05-05 18:55 43.44043 5.21312 22 ft 14 kts 315°
2026-05-05 18:55 43.44120 5.21198 20 ft 18 kts 311°
2026-05-05 18:55 43.44216 5.21061 18 ft 21 kts 315°
2026-05-05 18:56 43.44307 5.20883 17 ft 24 kts 295°
2026-05-05 18:56 43.44421 5.20700 15 ft 24 kts 313°
2026-05-05 18:56 43.44539 5.20532 13 ft 23 kts 314°
2026-05-05 18:56 43.44648 5.20378 13 ft 22 kts 314°
2026-05-05 18:57 43.44760 5.20221 13 ft 22 kts 313°
2026-05-05 18:57 43.44862 5.20072 13 ft 20 kts 313°
2026-05-05 18:57 43.44957 5.19938 13 ft 18 kts 314°
2026-05-05 18:57 43.44974 5.19835 13 ft 10 kts 243°
2026-05-05 18:58 43.44918 5.19766 13 ft 10 kts 197°
2026-05-05 18:58 43.44868 5.19796 13 ft 7 kts 133°
2026-05-05 18:58 43.44721 5.20008 13 ft 63 kts 134°
2026-05-05 18:58 43.44250 5.20681 17 ft 128 kts 134°
2026-05-05 18:59 43.43493 5.21761 62 ft 179 kts 134°
2026-05-05 18:59 43.42614 5.23069 444 ft 190 kts 134°
2026-05-05 18:59 43.41839 5.24539 763 ft 196 kts 107°
2026-05-05 18:59 43.41874 5.26421 1096 ft 203 kts 74°
2026-05-05 19:00 43.42583 5.28063 1513 ft 205 kts 37°
2026-05-05 19:00 43.43902 5.28699 1971 ft 201 kts 356°
2026-05-05 19:00 43.45280 5.28593 2431 ft 198 kts 355°
2026-05-05 19:00 43.46632 5.28343 2829 ft 199 kts 347°
2026-05-05 19:01 43.47998 5.27909 3125 ft 207 kts 344°
2026-05-05 19:01 43.49437 5.27351 3394 ft 218 kts 342°
2026-05-05 19:01 43.50936 5.26718 3650 ft 230 kts 341°
2026-05-05 19:01 43.52471 5.26047 3907 ft 238 kts 341°
2026-05-05 19:02 43.54112 5.25317 4179 ft 254 kts 341°
2026-05-05 19:02 43.55832 5.24547 4447 ft 270 kts 340°
2026-05-05 19:02 43.57676 5.23721 4749 ft 281 kts 340°
2026-05-05 19:02 43.59543 5.22884 5209 ft 282 kts 340°
2026-05-05 19:03 43.61422 5.22043 5698 ft 285 kts 340°
2026-05-05 19:03 43.63298 5.21200 6179 ft 287 kts 340°
2026-05-05 19:03 43.65225 5.20334 6671 ft 290 kts 340°
2026-05-05 19:03 43.67131 5.19477 7182 ft 291 kts 339°
2026-05-05 19:04 43.69079 5.18600 7720 ft 292 kts 339°
2026-05-05 19:04 43.71000 5.17734 8254 ft 295 kts 339°
2026-05-05 19:04 43.72959 5.16818 8784 ft 298 kts 338°
2026-05-05 19:04 43.74932 5.15882 9318 ft 300 kts 338°
2026-05-05 19:05 43.76915 5.14942 9857 ft 303 kts 338°
2026-05-05 19:05 43.78911 5.13995 10381 ft 308 kts 338°
2026-05-05 19:05 43.80947 5.13031 10903 ft 312 kts 338°
2026-05-05 19:05 43.83010 5.12053 11423 ft 316 kts 338°
2026-05-05 19:06 43.85112 5.11056 11965 ft 320 kts 338°
2026-05-05 19:06 43.87216 5.10058 12500 ft 323 kts 338°
2026-05-05 19:06 43.89355 5.09048 13026 ft 326 kts 338°
2026-05-05 19:06 43.91499 5.08053 13545 ft 329 kts 338°
2026-05-05 19:07 43.93703 5.07032 14078 ft 331 kts 338°
2026-05-05 19:07 43.95897 5.06015 14586 ft 333 kts 338°
2026-05-05 19:07 43.98100 5.04990 14992 ft 340 kts 338°
2026-05-05 19:07 44.00418 5.03905 14873 ft 362 kts 338°
2026-05-05 19:08 44.02838 5.02774 14662 ft 368 kts 338°
2026-05-05 19:08 44.05259 5.01649 14381 ft 365 kts 338°
2026-05-05 19:08 44.07659 5.00532 14104 ft 361 kts 338°
2026-05-05 19:08 44.10006 4.99438 13835 ft 357 kts 338°
2026-05-05 19:09 44.12354 4.98340 13565 ft 356 kts 338°
2026-05-05 19:09 44.14696 4.97245 13527 ft 350 kts 338°
2026-05-05 19:09 44.17033 4.96148 13608 ft 356 kts 338°
2026-05-05 19:09 44.19381 4.95047 13687 ft 356 kts 338°
2026-05-05 19:10 44.21732 4.93944 13783 ft 358 kts 338°
2026-05-05 19:10 44.24098 4.92833 13876 ft 358 kts 338°
2026-05-05 19:10 44.26444 4.91731 13913 ft 360 kts 338°
2026-05-05 19:10 44.28812 4.90618 13898 ft 359 kts 338°
2026-05-05 19:11 44.31183 4.89502 13895 ft 358 kts 339°
2026-05-05 19:11 44.33551 4.88387 13892 ft 357 kts 339°
2026-05-05 19:11 44.35918 4.87271 13897 ft 359 kts 339°
2026-05-05 19:11 44.38281 4.86156 13887 ft 357 kts 339°
2026-05-05 19:12 44.40609 4.85057 13886 ft 357 kts 339°
2026-05-05 19:12 44.42965 4.83943 13886 ft 358 kts 339°
2026-05-05 19:12 44.45332 4.82823 13884 ft 357 kts 339°
2026-05-05 19:12 44.47697 4.81703 13885 ft 357 kts 339°
2026-05-05 19:13 44.50063 4.80583 13884 ft 357 kts 339°
2026-05-05 19:13 44.52414 4.79479 13878 ft 357 kts 341°
2026-05-05 19:13 44.54884 4.78922 13881 ft 361 kts 358°
2026-05-05 19:13 44.57369 4.79356 13882 ft 363 kts 15°
2026-05-05 19:14 44.59729 4.80695 13885 ft 364 kts 27°
2026-05-05 19:14 44.61947 4.82352 13883 ft 364 kts 28°
2026-05-05 19:14 44.64178 4.84040 13880 ft 364 kts 28°
2026-05-05 19:14 44.66425 4.85687 13880 ft 363 kts 27°
2026-05-05 19:15 44.68679 4.87299 13893 ft 364 kts 27°
2026-05-05 19:15 44.70947 4.88904 14031 ft 362 kts 27°
2026-05-05 19:15 44.73173 4.90512 14184 ft 364 kts 29°
2026-05-05 19:15 44.75433 4.92152 14332 ft 366 kts 26°
2026-05-05 19:16 44.77738 4.93700 14494 ft 367 kts 25°
2026-05-05 19:16 44.80070 4.95271 14652 ft 368 kts 26°
2026-05-05 19:16 44.82368 4.96846 14816 ft 371 kts 26°
2026-05-05 19:16 44.84701 4.98461 14954 ft 372 kts 26°
2026-05-05 19:17 44.87024 5.00076 14934 ft 372 kts 26°
2026-05-05 19:17 44.89350 5.01697 14926 ft 370 kts 26°
2026-05-05 19:17 44.91650 5.03300 14922 ft 369 kts 26°
2026-05-05 19:17 44.93946 5.04901 14924 ft 369 kts 26°
2026-05-05 19:18 44.96271 5.06525 14916 ft 371 kts 26°
2026-05-05 19:18 44.98564 5.08126 14920 ft 371 kts 26°
2026-05-05 19:18 45.00884 5.09748 14919 ft 370 kts 26°
2026-05-05 19:18 45.03193 5.11365 14911 ft 369 kts 26°
2026-05-05 19:19 45.05471 5.12960 14924 ft 370 kts 26°
2026-05-05 19:19 45.07793 5.14589 14912 ft 369 kts 26°
2026-05-05 19:19 45.10186 5.15846 14928 ft 369 kts 11°
2026-05-05 19:19 45.12718 5.16170 14917 ft 367 kts 356°
2026-05-05 19:20 45.15283 5.15929 14922 ft 367 kts 353°
2026-05-05 19:20 45.17821 5.15571 14928 ft 367 kts 352°
2026-05-05 19:20 45.20365 5.15230 14929 ft 367 kts 353°
2026-05-05 19:20 45.22911 5.14919 14925 ft 366 kts 353°
2026-05-05 19:21 45.25448 5.14626 14922 ft 366 kts 353°
2026-05-05 19:21 45.27990 5.14339 14926 ft 366 kts 354°
2026-05-05 19:21 45.30533 5.14053 14927 ft 366 kts 354°
2026-05-05 19:21 45.33058 5.13768 14927 ft 366 kts 354°
2026-05-05 19:22 45.35603 5.13480 14926 ft 366 kts 354°
2026-05-05 19:22 45.38153 5.13192 14928 ft 366 kts 354°
2026-05-05 19:22 45.40659 5.12909 14923 ft 365 kts 354°
2026-05-05 19:22 45.43213 5.12620 14931 ft 365 kts 354°